Weather in Tucha

Belarus     52°57′46″N   26°32′43″E
temp.,
°C
wind,
m/s
gust,
m/s
humid.,
%
clouds,
%
prec.,
mm/h
press.,
hPa
HPBL,
m
4 july, mon
mon400:00+17nne22905 0.0 101823
03:00+16ene2292100 0.0 101822
06:00+17se1290100 0.0 101817
09:00+21sse23715 0.0 1017333
12:00+24s23560 0.0 10161148
15:00+26s125217 0.0 10151557
18:00+24s347292 0.2 1015164
21:00+20wnw23857 0.6 101536
5 july, tue
tue500:00+18nw229096 0.0 101513
03:00+17wnw339293 0.0 101638
06:00+17wnw22925 0.0 101625
09:00+21nw237873 0.0 1017361
12:00+24wnw2366100 0.4 1017731
15:00+25nw4560100 0.9 10171354
18:00+23nw467299 1.0 1017572
21:00+19nnw4885100 1.0 1017192
6 july, wed
wed600:00+18n4877100 0.0 1017239
03:00+16n51090100 0.4 1017285
06:00+15nne5994100 0.8 1017364
09:00+14n5996100 3.1 1016356
12:00+13nnw5897100 8.8 1018330
15:00+13n4796100 10.7 1018339
18:00+16n34767 0.0 1017616
21:00+14s0084100 0.0 101711
7 july, thu
thu700:00+12ssw2291100 0.0 101725
03:00+12sw2294100 0.0 101722
06:00+13wsw119487 0.0 101718
09:00+15ssw1287100 0.0 1017213
12:00+17s12798 0.0 1017519
15:00+21wnw346694 0.6 1016802
18:00+19nnw4671100 0.3 1016471
21:00+18nnw227174 0.3 101612
8 july, fri
fri800:00+13ne117943 0.0 101710
03:00+12w11815 0.0 101710
06:00+13w008015 0.0 101810
09:00+18wnw116992 0.0 1018282
12:00+21nw22585 0.0 1018932
15:00+22nw33535 0.0 10181536
18:00+22nnw435993 0.0 1018796
21:00+18nnw227785 0.0 101820